Moline, IL
on Friday, May 17, 2013

Friday
Previous Day Next Day
Daily Summary
 ActualAverageRecord
Temperature
Mean Temperature °F 62°F  
Max Temperature 80°F 73°F 91°F (1987)
Min Temperature 58°F 51°F 35°F (2002)
Degree Days
Heating Degree Days 0 5  
Month to date heating degree days 107 114  
Since 1 July heating degree days 6265 6137  
Cooling Degree Days 4 2  
Month to date cooling degree days 28 23  
Year to date cooling degree days 37 37  
Growing Degree Days18 (Base °F )  
Moisture
Dew Point 58°F   
Average Humidity 68    
Maximum Humidity 87    
Minimum Humidity 48    
Precipitation
Precipitation 0.00 in 0.14 in 2.19 in (1986)
Month to date precipitation 3.27 2.28  
Year to date precipitation 18.45 11.82  
Snow
Snow 0.00 in 0.00 in in ()
Month to date snowfall 0.0 0.0  
Since 1 July snowfall 34.5 31.6  
Snow Depth 0.00 in   
Wind
Wind Speed 7 mph   
Max Wind Speed 16 mph   
Max Gust Speed 21 mph   
Visibility 10 miles   
Events     

Key: T is trace of precipitation, MM is missing value
Source: NWS Daily Summary
Time(CDT)TemperatureDew PointHumidity Pressure Visibility Wind DirectionWind SpeedGust SpeedPrecipitationEvents Conditions
12:52 AM 64.9°F 57.0°F 75% 29.88 in 10.0 miles Calm Calm - N/A   Clear
1:52 AM 61.0°F 55.9°F 83% 29.90 in 10.0 miles Calm Calm - N/A   Clear
2:52 AM 66.0°F 60.1°F 81% 29.89 in 10.0 miles South 8.1 mph - N/A   Clear
3:52 AM 66.0°F 59.0°F 78% 29.89 in 10.0 miles SSW 11.5 mph - N/A   Clear
4:52 AM 64.9°F 55.0°F 70% 29.91 in 10.0 miles SW 4.6 mph - N/A   Clear
5:52 AM 61.0°F 55.0°F 81% 29.95 in 10.0 miles Calm Calm - N/A   Clear
6:52 AM 62.1°F 57.0°F 84% 29.96 in 10.0 miles SSE 3.5 mph - N/A   Clear
7:52 AM 66.9°F 57.0°F 70% 29.97 in 10.0 miles SW 3.5 mph - N/A   Clear
8:52 AM 71.1°F 57.9°F 63% 29.98 in 10.0 miles Variable 4.6 mph - N/A   Scattered Clouds
9:52 AM 75.0°F 57.9°F 55% 29.96 in 10.0 miles WSW 8.1 mph - N/A   Clear
10:52 AM 75.9°F 59.0°F 56% 29.97 in 10.0 miles Variable 5.8 mph - N/A   Partly Cloudy
11:52 AM 77.0°F 57.9°F 52% 29.96 in 10.0 miles Calm Calm - N/A   Mostly Cloudy
12:52 PM 79.0°F 57.0°F 47% 29.95 in 10.0 miles South 13.8 mph 17.3 mph N/A   Partly Cloudy
1:52 PM 79.0°F 57.0°F 47% 29.94 in 10.0 miles South 9.2 mph - N/A   Mostly Cloudy
2:52 PM 80.1°F 59.0°F 48% 29.94 in 10.0 miles South 6.9 mph - N/A   Overcast
3:52 PM 79.0°F 59.0°F 50% 29.91 in 10.0 miles SSE 8.1 mph - N/A   Mostly Cloudy
4:52 PM 79.0°F 60.1°F 52% 29.91 in 10.0 miles East 9.2 mph 18.4 mph N/A   Clear
5:52 PM 78.1°F 57.9°F 50% 29.91 in 10.0 miles ESE 9.2 mph - N/A   Mostly Cloudy
6:52 PM 75.0°F 59.0°F 57% 29.91 in 10.0 miles East 8.1 mph - N/A   Partly Cloudy
7:52 PM 75.0°F 59.0°F 57% 29.93 in 10.0 miles ENE 10.4 mph - N/A   Overcast
8:52 PM 72.0°F 61.0°F 68% 29.95 in 10.0 miles East 15.0 mph - N/A   Overcast
9:52 PM 69.1°F 62.1°F 78% 29.97 in 8.0 miles East 11.5 mph - N/A   Scattered Clouds
10:52 PM 66.9°F 62.1°F 84% 29.96 in 5.0 miles East 10.4 mph - N/A   Haze
11:52 PM 64.9°F 61.0°F 87% 29.96 in 4.0 miles East 9.2 mph - N/A   Clear
Astronomy
Sunrise:05:40 AM (CDT) Moon Rise:12:15 PM (CDT)5/17
Sunset:08:16 PM (CDT) Moon Set:01:07 AM (CDT)5/17
Moon Phase
May. 17 May. 18 May. 25 May. 31 Jun. 08

Copyright © 2017 The Weather Underground, Inc.















  Today is Tuesday, Nov. 22, the 327th day of 2016. There are 39 days left in the year.
1866 -- 150 years ago: Free luncheon is served at Phil Hein's Saloon every morning at 10 o'clock.
1891 -- 125 years ago: Bige Bickford was injured as he was coupling cars in the Rock Island Lines yard.
1916 -- 100 years ago: Clarence Granlund was elected president of the Lyceum at Augustana College.
1941 -- 75 years ago: Alice Schall, teacher at Grant School, supervised packing of Thanksgiving boxes for needy families.
1966 -- 50 years ago: The Rev. Lowell Campbell, pastor of the Milan Presbyterian Church, led the members of the congregation in a ground-breaking ceremony yesterday at the site of the new church one mile south of Andalusia Road on U.S. 67. The building will cost $285,000 and will be completed next fall.
1991 -- 25 years ago: Construction of a 200-room, $13.5 million hotel on the east end of the Moline civic center site will begin next spring, according to an agreement that was to be considered this morning by the Quad City Civic Center Authority.